Location: York
(31.8935°S, 116.7682°E)
Time: 23:44:47
(UTC+08:00)

Envisat - Pass Details

Date: 19 May 2021
Orbit: 764 x 766 km, 98.1° (Epoch: 14 June)

Event Time Altitude Azimuth Distance (km) Brightness Sun altitude
Rises 17:49:03 0° 172° (S) 3,264 6.0 -6.2°
Reaches altitude 10° 17:51:23 10° 174° (S) 2,331 5.3 -6.7°
Maximum altitude 17:56:29 67° 255° (WSW) 837 3.5 -7.7°
Drops below altitude 10° 18:01:31 10° 337° (NNW) 2,302 6.1 -8.7°
Sets 18:03:49 0° 339° (NNW) 3,220 6.8 -9.2°
